Regional Weather Roundup
Issued by NWS

Home | Current Version | Previous Version | Text Only | Print | Product List | Glossary Off
Versions: 1 2 3 4 5 6 7 8 9 10 11 12 13 14 15 16 17 18 19 20 21 22 23 24 25 26 27 28 29 30 31 32 33 34 35 36 37 38 39 40 41 42 43 44 45 46 47 48 49 50

000
ASUS45 KBOI 031110
RWRID
WEATHER ROUNDUP FOR IDAHO
NATIONAL WEATHER SERVICE BOISE ID
400 AM MST TUE MAR 03 2015

NOTE: "FAIR" INDICATES FEW OR NO CLOUDS BELOW 12000 FEET
WITH NO SIGNIFICANT WEATHER AND/OR OBSTRUCTIONS TO VISIBILITY

IDZ012-014-031200-
SOUTHWEST IDAHO


CITY           SKY/WX    TMP DP  RH WIND       PRES   REMARKS
BOISE          CLOUDY    33  23  66 NW16      29.90R WCI  23
CALDWELL       PTCLDY    34  18  51 NW20G25   29.95R WCI  22
MOUNTAIN HOME  PTCLDY    32  22  65 W29       29.86S WCI  18
$$

IDZ016-017-031200-
SOUTHCENTRAL IDAHO


CITY           SKY/WX    TMP DP  RH WIND       PRES   REMARKS
BURLEY         CLOUDY    30  21  69 W21G31    29.78R WCI  17
JEROME         CLOUDY    29  22  75 SW21G30   29.79F WCI  16
TWIN FALLS     CLOUDY    31  21  66 W24G31    29.80S WCI  17
$$

IDZ019>023-031200-
SOUTHEAST IDAHO


CITY           SKY/WX    TMP DP  RH WIND       PRES   REMARKS
IDAHO FALLS    LGT SNOW  22  19  89 N25       29.74R VSB 3/4 WCI   5
POCATELLO      CLOUDY    31  24  75 SW20      29.77R WCI  19
REXBURG        SNOW      19  32 100 N15G24    29.76R VSB 1/2 WCI   5
$$

IDZ006-010-011-018-031-032-031200-
CENTRAL IDAHO MOUNTAINS


CITY           SKY/WX    TMP DP  RH WIND       PRES   REMARKS
MCCALL         CLEAR     22  16  78 W5        29.84R WCI  16
HAILEY         CLOUDY    32  19  59 NW6       29.70R WCI  26
STANLEY          N/A     22   9  57 NW9       29.75R WCI  12
SALMON         MOCLDY    21   3  45 NE16      29.91R WCI   7
CHALLIS        FLURRIES  25  15  66 NE16      29.78R WCI  12
$$

IDZ002-004-006-007-026-031200-
NORTHERN IDAHO


CITY           SKY/WX    TMP DP  RH WIND       PRES   REMARKS
LEWISTON       CLOUDY    34  28  79 N6        30.09R WCI  29
LOWELL           N/A     30  26  85 VRB3      30.09R
COEUR D`ALENE  CLEAR     25  10  54 N12       30.12R WCI  14
MULLAN PASS    CLOUDY     8   5  87 VRB3      29.89R
$$


USA.gov is the U.S. government's official web portal to all federal, state and local government web resources and services.